Location: Unnamed
(42.1164°N, 2.7652°E)
Time: 09:10:43
(UTC+02:00)

X-37B - Pass Details

Date: 02 August 2021
Orbit: 381 x 393 km, 45.0° (Epoch: 29 August)

Event Time Altitude Azimuth Distance (km) Brightness Sun altitude
Exits shadow 06:08:09 - 253° (WSW) 1,525 2.9 -6.6°
Reaches altitude 10° 06:08:28 10° 253° (WSW) 1,393 2.8 -6.5°
Maximum altitude 06:11:36 85° 338° (NNW) 386 0.6 -6.0°
Drops below altitude 10° 06:14:45 10° 71° (ENE) 1,400 5.1 -5.5°
Sets 06:16:49 0° 72° (ENE) 2,255 6.6 -5.2°
